Weather History for West Point, VA

Change the Weather History Date:

Tuesday, May 13, 2014

  Actual Average (KRIC) Record (KRIC)
Temperature  
Mean Temperature 81 °F 66 °F  
Max Temperature 94 °F 77 °F 94 °F (1956)
Min Temperature 67 °F 54 °F 36 °F (1969)
Degree Days  
Heating Degree Days 0 3  
Month to date heating degree days 45  
Since 1 July heating degree days 3737  
Cooling Degree Days 16 3  
Month to date cooling degree days 31  
Year to date cooling degree days 73  
Growing Degree Days 31 (Base 50)    
Moisture  
Dew Point 63 °F    
Average Humidity 59    
Maximum Humidity 85    
Minimum Humidity 29    
Precipitation  
Precipitation 0.00 in 0.12 in 1.49 in (1918)
Month to date precipitation 1.47  
Year to date precipitation 14.58  
Snow  
Snow 0.00 in 0.00 in 0.00 in (2002)
Month to date snowfall 0.0  
Since 1 July snowfall 10.3  
Snow Depth -    
Sea Level Pressure  
Sea Level Pressure 30.11 in    
Wind  
Wind Speed 4 mph (SSE)    
Max Wind Speed 14 mph    
Max Gust Speed 10 mph    
Visibility 9 miles    
Events      
T = Trace of Precipitation, MM = Missing Value Source: NWS Daily Summary

Daily Weather History Graph

Daily Weather History Graph

Search for Another Location

Airport:

Trip Planner

Search our weather history database for the weather conditions in past years. The results will help you decide how hot, cold, wet, or windy it might be!

Date:

Astronomy

May. 13, 2014 Rise Set
Actual Time 5:59 AM EDT 8:07 PM EDT
Civil Twilight 5:30 AM EDT 8:36 PM EDT
Nautical Twilight 4:54 AM EDT 9:12 PM EDT
Astronomical Twilight 4:16 AM EDT 9:51 PM EDT
Moon 7:08 PM EDT (5/13) 5:12 AM EDT (5/13)
Length of Visible Light 15h 06m
Length of Day
14h 08m
Waxing Gibbous, 98% of the Moon is Illuminated
May 13
Waxing Gibbous
May 14
Full
May 21
Last Quarter
May 28
New
Jun 5
First Quarter

Hourly Weather History & Observations

Time (EDT) Temp. Heat Index Dew Point Humidity Pressure Visibility Wind Dir Wind Speed Gust Speed Precip Events Conditions
12:15 AM 75.9 °F - 62.8 °F 64% 30.11 in 10.0 mi SSE 4.6 mph - N/A   Clear
12:35 AM 75.6 °F - 62.8 °F 64% 30.11 in 10.0 mi SSE 4.6 mph - N/A   Clear
12:55 AM 75.4 °F - 62.6 °F 64% 30.11 in 10.0 mi Calm Calm - N/A   Clear
1:15 AM 75.2 °F - 62.6 °F 65% 30.11 in 10.0 mi SE 3.5 mph - N/A   Clear
1:35 AM 74.3 °F - 62.6 °F 67% 30.10 in 10.0 mi SSE 5.8 mph - N/A   Clear
1:55 AM 75.2 °F - 63.0 °F 66% 30.09 in 10.0 mi South 5.8 mph - N/A   Clear
2:15 AM 75.0 °F - 63.1 °F 66% 30.08 in 10.0 mi South 4.6 mph - N/A   Clear
2:35 AM 74.3 °F - 63.3 °F 68% 30.08 in 10.0 mi South 3.5 mph - N/A   Clear
2:55 AM 74.5 °F - 62.8 °F 67% 30.08 in 10.0 mi South 3.5 mph - N/A   Clear
3:15 AM 74.3 °F - 62.8 °F 67% 30.08 in 10.0 mi South 3.5 mph - N/A   Clear
3:35 AM 74.3 °F - 63.3 °F 68% 30.08 in 10.0 mi SSW 5.8 mph - N/A   Clear
3:55 AM 74.3 °F - 63.5 °F 69% 30.09 in 10.0 mi Calm Calm - N/A   Clear
4:15 AM 73.6 °F - 63.5 °F 71% 30.09 in 10.0 mi South 3.5 mph - N/A   Clear
4:35 AM 73.4 °F - 63.5 °F 71% 30.09 in 10.0 mi South 3.5 mph - N/A   Clear
4:55 AM 73.2 °F - 63.5 °F 71% 30.09 in 10.0 mi SSW 3.5 mph - N/A   Clear
5:15 AM 72.0 °F - 63.9 °F 76% 30.09 in 10.0 mi SW 3.5 mph - N/A   Clear
5:35 AM 72.1 °F - 63.7 °F 75% 30.09 in 10.0 mi Calm Calm - N/A   Clear
5:55 AM 72.3 °F - 63.7 °F 74% 30.10 in 10.0 mi Calm Calm - N/A   Clear
6:15 AM 72.5 °F - 63.9 °F 74% 30.10 in 10.0 mi Calm Calm - N/A   Clear
6:35 AM 72.0 °F - 64.0 °F 76% 30.11 in 10.0 mi Calm Calm - N/A   Clear
6:55 AM 72.9 °F - 64.6 °F 75% 30.11 in 10.0 mi Calm Calm - N/A   Clear
7:15 AM 73.6 °F - 64.4 °F 73% 30.11 in 10.0 mi SSW 3.5 mph - N/A   Clear
7:35 AM 74.5 °F - 64.4 °F 71% 30.11 in 10.0 mi SW 3.5 mph - N/A   Clear
7:55 AM 76.1 °F - 64.2 °F 67% 30.12 in 10.0 mi WSW 3.5 mph - N/A   Clear
9:15 AM 80.1 °F 81.8 °F 64.4 °F 59% 30.13 in 10.0 mi WNW 5.8 mph - N/A   Clear
9:35 AM 80.8 °F 82.2 °F 63.5 °F 56% 30.12 in 10.0 mi West 8.1 mph - N/A   Clear
10:15 AM 82.9 °F 84.2 °F 63.7 °F 52% 30.13 in 10.0 mi WNW 4.6 mph - N/A   Clear
11:55 AM 87.8 °F 87.9 °F 61.5 °F 41% 30.12 in 10.0 mi NW 4.6 mph - N/A   Clear
12:35 PM 89.4 °F 89.5 °F 61.3 °F 39% 30.12 in 10.0 mi WNW 4.6 mph - N/A   Clear
1:15 PM 91.2 °F 91.4 °F 61.5 °F 37% 30.11 in 10.0 mi SE 3.5 mph - N/A   Clear
1:35 PM 91.8 °F 91.5 °F 60.4 °F 35% 30.11 in 10.0 mi Calm Calm - N/A   Clear
1:55 PM 91.9 °F 91.8 °F 61.0 °F 35% 30.11 in 10.0 mi Calm Calm - N/A   Clear
2:15 PM 92.8 °F 93.1 °F 61.2 °F 35% 30.10 in 10.0 mi West 3.5 mph - N/A   Clear
2:35 PM 93.2 °F 93.3 °F 61.3 °F 34% 30.10 in 10.0 mi SSW 4.6 mph - N/A   Clear
2:55 PM 93.7 °F 93.7 °F 60.8 °F 33% 30.10 in 10.0 mi Calm Calm - N/A   Clear
3:15 PM 93.2 °F 93.7 °F 61.9 °F 35% 30.09 in 10.0 mi South 4.6 mph - N/A   Clear
3:35 PM 94.1 °F 93.9 °F 60.1 °F 32% 30.08 in 10.0 mi South 3.5 mph - N/A   Clear
3:55 PM 94.3 °F 94.1 °F 60.4 °F 32% 30.08 in 10.0 mi SSE 6.9 mph - N/A   Clear
4:15 PM 94.5 °F 94.0 °F 59.7 °F 31% 30.07 in 10.0 mi SSE 4.6 mph - N/A   Clear
4:35 PM 94.3 °F 93.4 °F 58.6 °F 30% 30.07 in 10.0 mi SE 4.6 mph - N/A   Clear
4:55 PM 94.1 °F 93.1 °F 58.6 °F 30% 30.07 in 4.0 mi South 4.6 mph - N/A   Clear
5:15 PM 94.3 °F 93.0 °F 57.2 °F 29% 30.08 in 10.0 mi South 4.6 mph - N/A   Clear
5:35 PM 93.9 °F 93.2 °F 58.8 °F 31% 30.07 in 10.0 mi SE 4.6 mph - N/A   Clear
5:55 PM 93.6 °F 92.7 °F 59.0 °F 31% 30.07 in 10.0 mi SSE 3.5 mph - N/A   Clear
6:15 PM 91.6 °F 93.1 °F 64.0 °F 40% 30.07 in 10.0 mi SSE 4.6 mph - N/A   Clear
6:35 PM 89.1 °F 91.3 °F 66.0 °F 46% 30.08 in 10.0 mi ENE 10.4 mph - N/A   Scattered Clouds
6:55 PM 86.0 °F 86.8 °F 63.0 °F 46% 30.08 in 10.0 mi East 13.8 mph - N/A   Scattered Clouds
7:15 PM 84.4 °F 85.6 °F 63.9 °F 50% 30.09 in 10.0 mi East 6.9 mph - N/A   Scattered Clouds
7:35 PM 84.2 °F 85.4 °F 63.7 °F 50% 30.09 in 10.0 mi East 9.2 mph - N/A   Clear
7:55 PM 80.4 °F 82.7 °F 66.6 °F 63% 30.10 in 10.0 mi East 10.4 mph - N/A   Clear
8:15 PM 77.0 °F - 66.2 °F 69% 30.11 in 7.0 mi East 11.5 mph - N/A   Clear
8:35 PM 74.3 °F - 65.3 °F 73% 30.12 in 10.0 mi ENE 8.1 mph - N/A   Clear
8:55 PM 72.3 °F - 64.4 °F 76% 30.13 in 10.0 mi East 11.5 mph - N/A   Clear
9:15 PM 70.7 °F - 63.9 °F 79% 30.14 in 7.0 mi East 11.5 mph - N/A   Clear
9:35 PM 70.0 °F - 64.0 °F 81% 30.15 in 7.0 mi East 6.9 mph 10.4 mph N/A   Clear
9:55 PM 69.4 °F - 63.9 °F 82% 30.15 in 7.0 mi ENE 9.2 mph - N/A   Scattered Clouds
10:15 PM 68.9 °F - 63.5 °F 83% 30.16 in 7.0 mi ENE 6.9 mph - N/A   Mostly Cloudy
10:35 PM 68.5 °F - 63.5 °F 84% 30.17 in 7.0 mi ENE 5.8 mph - N/A   Mostly Cloudy
10:55 PM 68.5 °F - 63.5 °F 84% 30.18 in 7.0 mi NE 8.1 mph - N/A   Overcast
11:15 PM 68.2 °F - 63.5 °F 85% 30.18 in 5.0 mi ENE 4.6 mph - N/A   Overcast
11:35 PM 68.0 °F - 63.0 °F 84% 30.19 in 5.0 mi NNE 4.6 mph - N/A   Overcast
11:55 PM 67.6 °F - 62.8 °F 84% 30.20 in 7.0 mi ENE 3.5 mph - N/A   Overcast